STARLINK-1234, 45190

Orbit data source: Space-Track

STARLINK-1234, 45190 is a payload satellite owned by SpaceX/Seattle (US) in LEO that was launched on Mon, 17 Feb 2020 UTC via an FALCON 9 launch vehicle from the Air Force Eastern Test Range (AFETR). Payload-class satellites include a variety of spacecraft equipped with specific instruments for various scientific and technological missions. These include communications satellites like Starlink; space stations such as the ISS; scientific satellites like the Hubble; Earth observation satellites from companies like Planet Labs, Umbra, and HawkEye 360; GPS; miniature CubeSats for education and research; and military/defense satellites.

Loading next visibility...
Identifier
45190, 2020-012N
Orbit
LEO
Country
Flag of USUS
Related business
Manufacturer
SpaceX/Seattle
Mission
Partially operational Commercial Communications
Bus & Motor
STARLINK, Unknown motor
Mass
260 kg wet, ~248 kg dry
Launch date (UTC)
2020-02-17 (6 years ago)
Launch vehicle
FALCON 9
Launch site
Air Force Eastern Test Range (AFETR)
Object type
Payload
Rocket body
Debris
Shape & HBR
Box + 1 Pan, 10.1 m
Radar Cross Section
13.562 m², Large (>1 m²)

Expand to show TLE details & history
Last TLE update: 23 hours ago

TLE from 23 hours ago
0 STARLINK-1234
1 45190U 20012N   26169.32986638  .00059410  00000-0  37508-3 0  9998
2 45190  53.0341 188.0282 0004950 318.3816  41.6825 15.76058580351688
Epoch: 2026-06-18T07:55Z
TLE epoch observation values (Epoch: 2026-06-18T07:55:00.455Z)
Latitude
-0.00007°
Longitude
162.70151°
Altitude
340.041 km
Speed
7.707 km/s
True Right ascension
12h 32m 06s
True Declination
0° 00' 00"
Sunlit
Object was in daylight at epoch
Visualization orbit readout
Latitude
Unknown
Longitude
Unknown
Altitude
Unknown
Speed
Unknown
Apparent Right ascension
Unknown
Apparent Declination
Unknown
Sunlit
N/A
Visualization observer readout
Local Sidereal Time
18:00:19
Azimuth
Unknown
Elevation
Unknown
Doppler factor
Unknown
Orbital elements
Apogee altitude
345.229 km
Perigee altitude
338.576 km
Semi-major axis
6,720.04 km
Eccentricity
0.0005
Inclination
53.0341°
RAAN
188.0282°
Arg. of periapsis
318.3816°
True anomaly
41.72024°
Mean anomaly
41.6825°
Eccentric anomaly
41.70137°
Mean motion
3.9399 °/min
Orbital period
91.37 mins
BSTAR
0.00037508
Loading maneuver chart data...
Computing Atmospheric mass density...

Documentation

Showing up to 5 results
|